Weather Service Report


579 
ASUS45 KTFX 151210
RWRMT 
MONTANA REGIONAL WEATHER ROUNDUP
NATIONAL WEATHER SERVICE GREAT FALLS MT
600 AM MDT MON OCT 15 2018

NOTE: "FAIR" INDICATES FEW OR NO CLOUDS BELOW 12000 FEET WITH NO
SIGNIFICANT WEATHER AND/OR OBSTRUCTIONS TO VISIBILITY.

MTZ001>007-043-151300-
WEST OF THE DIVIDE
  
CITY           SKY/WX    TMP DP  RH WIND       PRES   REMARKS
KALISPELL      FOG       21  20  96 CALM      30.41R VSB 1/2          
MISSOULA       FAIR      27  24  89 SW5       30.43R                  
BUTTE          FAIR      25  17  72 N3        30.36R                  
MULLAN PASS    FAIR      29  15  56 NW5       30.36R                  
ANACONDA         N/A     25  19  80 E3        30.37R                  
DEER LODGE       N/A     25  19  80 W6        30.40S WCI  18          
RONAN            N/A     25  23  93 NE5       30.39S                  
$$

MTZ008-052>055-151300-
SOUTHWEST MONTANA
  
CITY           SKY/WX    TMP DP  RH WIND       PRES   REMARKS
BOZEMAN        MOCLDY    25  20  81 CALM      30.37R                  
DILLON         FAIR      19  16  88 SW6       30.34F WCI  11          
ENNIS          CLEAR     19  16  86 CALM      30.39R                  
W YELLOWSTONE  FAIR       9   5  85 CALM      30.36S                  
$$

MTZ009-010-012-014-046-048-049-054-151300-
EAST SLOPES AND CENTRAL MONTANA
  
CITY           SKY/WX    TMP DP  RH WIND       PRES   REMARKS
CUT BANK       MOCLDY    40  25  55 W20       30.16S                  
GREAT FALLS    MOCLDY    38  27  64 SW18      30.19S WCI  28          
HELENA         MOCLDY    33  24  69 CALM      30.33R                  
AUGUSTA        MOCLDY    40  23  49 W20       30.20R                  
RAYNESFORD     FAIR      42  26  53 CALM      30.19S                  
ULM            MOCLDY    35  28  74 S9        30.23S WCI  28          
WHITE SULPHUR    N/A     28  21  74 SW7       30.28R WCI  21          
$$

MTZ011-013-016-021-045-047-050-051-151300-
NORTH CENTRAL MONTANA
  
CITY           SKY/WX    TMP DP  RH WIND       PRES   REMARKS
HAVRE          FAIR      42  29  59 SW22G30   30.09S                  
LEWISTOWN      CLOUDY    39  24  55 W9        30.16S                  
N BAR RANCH    CLOUDY    43  21  42 NW15      30.14F                  
CHINOOK          N/A     45  28  53 W15G21    30.06S                  
GRASS RANGE    MOCLDY    42  21  42 W17       30.09F                  
JUDITH GAP     MOCLDY    35  20  53 CALM      30.17R                  
ROY            MOCLDY    45  26  46 W23       30.08F                  
WINIFRED         N/A     41  24  51 W12       30.12F                  
$$

MTZ017>020-022>027-061-062-151300-
NORTHEAST MONTANA
  
CITY           SKY/WX    TMP DP  RH WIND       PRES   REMARKS
GLASGOW        LGT RAIN  36  26  67 W5        30.03F                  
GLENDIVE       CLOUDY    22  19  89 S9        30.10F WCI  12          
JORDAN           N/A     36  23  59 W12G18    30.09S WCI  28          
MALTA          PTCLDY    30  28  93 SW7       30.03S WCI  23          
SIDNEY           N/A     24  19  81 S12       30.07F WCI  13          
WOLF POINT     CLOUDY    30  24  78 W7        30.05F WCI  23          
POPLAR           N/A     28  21  74 SW3       30.04F                  
$$

MTZ028>42-056>058-151300-
SOUTHCENTRAL AND SOUTHEAST MONTANA
  
CITY           SKY/WX    TMP DP  RH WIND       PRES   REMARKS
BAKER          FAIR      26  20  77 W12       30.14F WCI  16          
BILLINGS       FAIR      30  18  60 SW26      30.21R WCI  16          
LIVINGSTON     MOCLDY    32  20  61 SW26G38   30.28R WCI  18          
MILES CITY     FAIR      22  20  92 S6        30.15F WCI  14          
BIG TIMBER     CLOUDY    36  19  51 W39G46    30.23R WCI  21          
FORSYTH          N/A     36  18  48 SW13      30.16F WCI  27          
HARLOWTON      MOCLDY    37  20  49 W30G43    30.19R WCI  25          
LAUREL           N/A     28  19  69 SW17G23   30.25R WCI  16          
$$

REGIONAL REPORTS...DAKOTAS
  
CITY           SKY/WX    TMP DP  RH WIND       PRES   REMARKS
WILLISTON      CLOUDY    24  19  81 SW7       30.04F WCI  16          
MINOT          FAIR      24  18  77 S13       30.04F WCI  12          
DICKINSON      FAIR      22  15  75 SW12      30.09F WCI  10          
BEACH            N/A     27  19  74 SW13      30.10F WCI  16          
CROSBY         FAIR      25  21  86 SW13      29.99F WCI  13          
TIOGA          FAIR      23  21  93 SW12      30.02F WCI  12          
WATFORD CITY   MOCLDY    23  18  80 SW7       30.05F WCI  15          
BISMARCK       FAIR      21  16  81 SW6       30.17F WCI  13          
GRAND FORKS    FAIR      21  18  88 W8        30.14F WCI  11          
FARGO          FAIR      22  20  92 SW6       30.18F WCI  14          
BUFFALO SD       N/A     23  17  78 W12       30.12F WCI  12          
RAPID CITY     FAIR      15  10  80 CALM      30.23F                  
$$

REGIONAL REPORTS...WYOMING/IDAHO/WASHINGTON
  
CITY           SKY/WX    TMP DP  RH WIND       PRES   REMARKS
GILLETTE       FAIR      22  14  71 SW18      30.22S WCI   7          
SHERIDAN       FAIR      14   8  77 S3        30.20F                  
BUFFALO WY     FAIR      26   7  44 NW6       30.19S WCI  19          
CODY           FAIR      16  12  84 CALM      30.27S                  
YELLOWSTONE LA   N/A      4   0  83 CALM      30.37R                  
IDAHO FALLS    FAIR      23  17  78 SW8       30.42R WCI  14          
SALMON         FAIR      21  18  88 CALM      30.47R                  
BOISE          FAIR      32  22  66 SE5       30.43R                  
SPOKANE        FAIR      35  21  56 S8        30.41R WCI  29          
$$

REGIONAL REPORTS...ALBERTA
  
CITY           SKY/WX    TMP DP  RH WIND       PRES   REMARKS
CALGARY        MOCLDY    50  23  34 W6        30.13R                  
EDMONTON       CLEAR     45  32  61 W13       30.00R                  
FORT MCMURRAY  CLEAR     43  30  61 W10       29.81R                  
HIGH LEVEL     CLOUDY    45  34  65 N9        29.94R                  
LETHBRIDGE     CLOUDY    46  25  42 W17       30.15R                  
LLOYDMINSTER   CLEAR     39  30  70 W15G21    29.88R WCI  31          
MEDICINE HAT   PTCLDY    43  28  56 W12       30.05R                  
ONEFOUR          N/A     39  30  70 NW20        N/A  WCI  30          
PEACE RIVER    CLOUDY    46  32  57 W9        30.01R                  
PINCHER CREEK  CLEAR     37  27  65 W28       30.19S WCI  25          
RAYMOND          N/A     41  28  60 W13         N/A                   
WATERTON GATE    N/A     39  25  56 SW29G41     N/A  WCI  28          
$$

REGIONAL REPORTS...SASKATCHEWAN
  
CITY           SKY/WX    TMP DP  RH WIND       PRES   REMARKS
CORONACH         N/A     36  23  60 SW15        N/A  WCI  26          
CYPRESS HILLS    N/A     41  21  45 NW13G18     N/A                   
ESTEVAN        CLOUDY    25  19  80 SW12G20   29.96F WCI  14          
MOOSE JAW        N/A     39  27  60 SW9         N/A                   
PRINCE ALBERT  MOCLDY    36  28  75 W7        29.72F WCI  30          
REGINA         CLOUDY    36  27  69 SW12      29.86F WCI  27          
ROCKGLEN         N/A     34  25  69 SW16        N/A  WCI  23          
SASKATOON      MOCLDY    37  30  75 SW12      29.79F WCI  30          
VAL MARIE        N/A     37  28  70 W9          N/A  WCI  31          
$$
  

Return to Home page


Western Regional Climate Center, wrcc@dri.edu